CONSULTA PERSONALIZADA Alfaro
      Predicción AEMET      
Valores extremos - medios de hoy
Fecha T (C) P (l/m2) Hr (%) Rs (W/m2) VV (km/h) DV Tint.(C)
Max Med Min Acu Med Med Max Med Max Med Min
 26-09-2020   17,1   12,8   11,2   0,0   65   150   41,8   313   19,0   17,4   16,4 
Datos de hoy
Fecha T (C) P (l/m2) Hr (%) Rs (W/m2) VV (km/h) DV Tint.(C)
Max Med Min Acu Med Med Max Med Max Med Min
 26-09-2020 13:30:00   17,1   16,7   16,5   0,0   55   421   32,8   324   18,2   18,1   18,1 
 26-09-2020 13:15:00   16,6   16,3   16,0   0,0   56   339   33,5   321   18,1   17,9   17,8 
 26-09-2020 13:00:00   16,2   16,0   15,8   0,0   57   270   32,4   324   17,9   17,8   17,7 
 26-09-2020 12:45:00   16,2   15,9   15,7   0,0   57   260   35,6   322   17,7   17,7   17,6 
 26-09-2020 12:30:00   16,4   16,0   15,7   0,0   56   441   36,4   323   17,6   17,6   17,5 
 26-09-2020 12:15:00   16,4   15,9   15,5   0,0   56   710   37,8   318   17,5   17,4   17,3 
 26-09-2020 12:00:00   15,8   15,6   15,4   0,0   57   721   31,7   326   17,3   17,2   17,2 
 26-09-2020 11:45:00   15,6   15,2   15,0   0,0   58   678   37,4   325   17,2   17,1   17,1 
 26-09-2020 11:30:00   15,2   14,9   14,7   0,0   59   625   35,6   321   17,1   17,0   17,0 
 26-09-2020 11:15:00   15,1   14,8   14,5   0,0   59   634   36,0   324   17,0   16,9   16,9 
 26-09-2020 11:00:00   15,0   14,6   14,3   0,0   59   595   33,8   310   16,9   16,9   16,9 
 26-09-2020 10:45:00   14,7   14,3   14,0   0,0   60   546   36,4   308   16,9   16,8   16,7 
 26-09-2020 10:30:00   14,2   13,9   13,5   0,0   61   475   41,8   316   16,8   16,7   16,5 
 26-09-2020 10:15:00   13,7   13,5   13,2   0,0   63   395   36,7   316   16,6   16,5   16,5 
 26-09-2020 10:00:00   13,5   13,3   13,2   0,0   64   345   36,0   314   16,6   16,5   16,4 
 26-09-2020 09:45:00   13,3   13,1   13,0   0,0   65   296   29,9   318   16,5   16,5   16,4 
 26-09-2020 09:30:00   13,1   13,0   12,8   0,0   65   253   36,7   316   16,5   16,5   16,4 
 26-09-2020 09:15:00   12,9   12,7   12,6   0,0   65   137   37,4   311   16,6   16,5   16,4 
 26-09-2020 09:00:00   12,6   12,5   12,5   0,0   65   41   36,7   312   16,5   16,5   16,4 
 26-09-2020 08:45:00   12,5   12,4   12,4   0,0   66   38   32,4   312   16,6   16,5   16,5 
 26-09-2020 08:30:00   12,5   12,4   12,4   0,0   66   20   36,0   314   16,6   16,5   16,5 
 26-09-2020 08:15:00   12,4   12,3   12,2   0,0   65   6   30,6   313   16,7   16,6   16,5 
 26-09-2020 08:00:00   12,2   12,2   12,1   0,0   66   1   35,6   315   16,7   16,6   16,6 
 26-09-2020 07:45:00   12,3   12,2   12,1   0,0   64   0   38,5   311   16,8   16,7   16,6 
 26-09-2020 07:30:00   12,1   11,9   11,8   0,0   64   0   26,3   316   16,8   16,7   16,7 
 26-09-2020 07:15:00   11,9   11,8   11,7   0,0   64   0   26,6   310   16,8   16,7   16,7 
 26-09-2020 07:00:00   11,8   11,7   11,5   0,0   65   0   25,2   307   16,8   16,8   16,7 
 26-09-2020 06:45:00   11,7   11,6   11,5   0,0   67   0   28,8   311   16,9   16,8   16,8 
 26-09-2020 06:30:00   11,7   11,5   11,5   0,0   69   0   24,8   307   16,9   16,9   16,8 
 26-09-2020 06:15:00   11,7   11,6   11,6   0,0   69   0   27,7   311   17,0   16,9   16,9 
 26-09-2020 06:00:00   12,0   11,8   11,6   0,0   69   0   29,5   312   17,1   17,0   16,9 
 26-09-2020 05:45:00   12,1   12,0   11,9   0,0   68   0   34,6   313   17,2   17,1   17,0 
 26-09-2020 05:30:00   12,1   12,0   12,0   0,0   68   0   38,5   314   17,2   17,1   17,1 
 26-09-2020 05:15:00   12,1   12,1   12,0   0,0   68   0   36,4   311   17,3   17,2   17,1 
 26-09-2020 05:00:00   12,1   12,1   12,1   0,0   67   0   34,6   312   17,3   17,2   17,2 
 26-09-2020 04:45:00   12,2   12,1   12,0   0,0   67   0   39,2   309   17,3   17,3   17,3 
 26-09-2020 04:30:00   12,1   12,0   11,9   0,0   67   0   30,6   311   17,5   17,4   17,3 
 26-09-2020 04:15:00   12,0   12,0   11,9   0,0   67   0   32,4   310   17,5   17,5   17,4 
 26-09-2020 04:00:00   12,0   11,9   11,8   0,0   67   0   31,7   311   17,6   17,5   17,5 
 26-09-2020 03:45:00   11,9   11,8   11,7   0,0   68   0   31,0   310   17,7   17,6   17,5 
 26-09-2020 03:30:00   11,8   11,6   11,4   0,0   69   0   33,8   310   17,8   17,7   17,6 
 26-09-2020 03:15:00   11,5   11,3   11,2   0,0   70   0   29,5   307   17,8   17,8   17,7 
 26-09-2020 03:00:00   11,6   11,5   11,4   0,0   70   0   28,8   312   17,9   17,9   17,8 
 26-09-2020 02:45:00   11,7   11,6   11,5   0,0   69   0   27,7   309   18,0   18,0   17,9 
 26-09-2020 02:30:00   11,8   11,7   11,6   0,0   69   0   28,1   311   18,1   18,0   18,0 
 26-09-2020 02:15:00   11,9   11,8   11,7   0,0   69   0   32,0   306   18,2   18,1   18,1 
 26-09-2020 02:00:00   11,8   11,6   11,5   0,0   69   0   29,5   295   18,3   18,2   18,2 
 26-09-2020 01:45:00   11,8   11,7   11,6   0,0   70   0   28,8   308   18,3   18,3   18,3 
 26-09-2020 01:30:00   12,0   11,9   11,8   0,0   68   0   36,4   303   18,5   18,4   18,3 
 26-09-2020 01:15:00   12,0   11,9   11,9   0,0   69   0   34,9   305   18,6   18,6   18,5 
 26-09-2020 01:00:00   11,9   11,8   11,7   0,0   69   0   29,9   307   18,7   18,6   18,6 
 26-09-2020 00:45:00   12,0   11,9   11,8   0,0   69   0   24,5   310   18,8   18,7   18,7 
 26-09-2020 00:30:00   12,0   12,0   11,9   0,0   68   0   25,9   306   18,9   18,8   18,8 
 26-09-2020 00:15:00   12,1   12,0   11,9   0,0   68   0   27,7   305   19,0   18,9   18,8 
 26-09-2020 00:00:00   12,1   12,0   11,9   0,0   68   0   31,7   311   19,0   19,0   18,9 
Datos diarios
Fecha desde Fecha hasta       Visualizar         Exportar Excel  
     
Alfaro - Fecha desde: 19-09-2020 - Fecha hasta: 25-09-2020
Fecha T (C) P (l/m2) Hr (%) Rs (W/m2) VV (km/h) DV Tint.(C)
Max Med Min Acu Med Med Max Med Max Med Min
 25-09-2020   19,1   13,8   10,9   0,0   61   167   62,6   313   26,6   21,6   19,0 
 24-09-2020   24,7   19,7   14,6   0,0   61   156   36,7   219   27,7   25,8   23,5 
 23-09-2020   27,1   20,4   13,9   0,1   57   162   31,7   210   29,2   26,7   24,0 
 22-09-2020   25,5   19,2   13,6   0,0   64   225   17,3   227   29,9   25,8   22,3 
 21-09-2020   24,3   19,2   15,3   0,0   71   230   29,2   277   27,7   24,9   22,4 
 20-09-2020   23,8   18,4   15,3   1,8   79   149   18,4   167   26,7   24,6   22,5 
 19-09-2020   25,8   19,6   17,6   0,2   69   74   34,2   152   27,9   25,3   24,0 
Datos mensuales
        Exportar      
   
Alfaro
Fecha T (C) P (l/m2) Hr (%) Rs (W/m2) VV (km/h) DV Tint.(C)
Max Med Min Acu Med Med Max Med Max Med Min
 Septiembre-2020   32,5   21,1   10,9   2,5   55   224   62,6   221   34,8   27,3   19,0 
 Agosto -2020   38,9   23,3   10,4   6,0   56   278   55,8   231   39,5   30,2   18,7 
 Julio -2020   37,5   23,3   12,4   1,6   55   336   50,4   247   39,9   29,9   21,7 
 Junio -2020   35,1   19,3   8,9   29,0   64   289   59,0   236   37,0   25,9   17,0 
 Mayo -2020   32,0   18,7   9,7   47,7   62   293   67,7   225   35,2   25,3   15,2 
 Abril -2020   22,8   13,9   4,3   93,5   74   198   59,0   189   29,8   22,7   16,4 
 Marzo -2020   22,9   10,4   0,5   89,5   70   171   93,2   231   29,9   21,8   15,6 
 Febrero -2020   20,6   10,7   0,3   1,8   71   141   61,6   234   28,0   22,0   15,4 
 Enero -2020   17,9   5,9   -2,3   15,7   83   69   58,3   218   26,4   17,1   10,9 
 Diciembre -2019   20,7   8,6   -1,0   11,4   78   68   100,8   240   24,0   19,3   13,4 
 Noviembre -2019   20,7   9,8   2,2   43,8   77   78   75,2   231   26,7   15,6   6,4 
 Octubre -2019   27,8   16,5   7,1   21,2   67   150   58,0   225   30,3   21,0   12,1 
PARÁMETROS
Desc. Abr. Descripción
T Temperatura del aire
P Precipitación acumulada
Hr Humedad relativa del aire
Rs Radiación solar
VV Velocidad del viento
DV Dirección del viento
Tint Temperatura interior
 
FUNCIONES
Desc. Abr. Descripción
Max Máxima
Med Media
Min Mínima
Acu Acumulado